Weather History for Bentonville, AR

Change the Weather History Date:

Wednesday, April 3, 2013

  Actual Average Record
Temperature  
Mean Temperature 44 °F -  
Max Temperature 50 °F 65 °F 82 °F (2011)
Min Temperature 37 °F 41 °F 21 °F (1987)
Degree Days  
Heating Degree Days 22    
Moisture  
Dew Point 25 °F    
Average Humidity 51    
Maximum Humidity 81    
Minimum Humidity 34    
Precipitation  
Precipitation 0.09 in - - ()
Sea Level Pressure  
Sea Level Pressure 30.18 in    
Wind  
Wind Speed 10 mph (East)    
Max Wind Speed 24 mph    
Max Gust Speed 34 mph    
Visibility 10 miles    
Events      
Averages and records for this station are not official NWS values.
T = Trace of Precipitation, MM = Missing Value Source: NWS Daily Summary

Daily Weather History Graph

Daily Weather History Graph

Search for Another Location

Airport:

Trip Planner

Search our weather history database for the weather conditions in past years. The results will help you decide how hot, cold, wet, or windy it might be!

Date:

Astronomy

Apr. 03, 2013 Rise Set
Actual Time 6:59 AM CDT 7:40 PM CDT
Civil Twilight 6:33 AM CDT 8:06 PM CDT
Nautical Twilight 6:03 AM CDT 8:37 PM CDT
Astronomical Twilight 5:31 AM CDT 9:09 PM CDT
Moon 2:30 AM CDT (4/3) 1:04 PM CDT (4/3)
Length of Visible Light 13h 33m
Length of Day
12h 41m
Last Quarter, 44% of the Moon is Illuminated
Apr 3
Last Quarter
Apr 10
New
Apr 18
First Quarter
Apr 25
Full
May 2
Last Quarter

Hourly Weather History & Observations

Time (CDT) Temp. Windchill Dew Point Humidity Pressure Visibility Wind Dir Wind Speed Gust Speed Precip Events Conditions
12:15 AM 37.4 °F 30.8 °F 28.4 °F 70% 30.17 in 10.0 mi ENE 9.2 mph - N/A   Mostly Cloudy
12:35 AM 37.4 °F 31.4 °F 28.4 °F 70% 30.18 in 10.0 mi East 8.1 mph - N/A   Overcast
12:55 AM 37.4 °F 30.3 °F 28.4 °F 70% 30.17 in 10.0 mi East 10.4 mph - N/A   Overcast
1:15 AM 37.4 °F 30.3 °F 28.4 °F 70% 30.18 in 10.0 mi East 10.4 mph - N/A   Mostly Cloudy
1:35 AM 37.4 °F 32.1 °F 28.4 °F 70% 30.18 in 10.0 mi ENE 6.9 mph - N/A   Scattered Clouds
1:55 AM 37.4 °F 30.8 °F 28.4 °F 70% 30.18 in 10.0 mi ENE 9.2 mph - N/A   Scattered Clouds
2:15 AM 37.4 °F 30.8 °F 26.6 °F 65% 30.18 in 10.0 mi ENE 9.2 mph - N/A   Overcast
2:35 AM 37.4 °F 29.8 °F 26.6 °F 65% 30.17 in 10.0 mi ENE 11.5 mph - N/A   Overcast
2:55 AM 37.4 °F 28.9 °F 26.6 °F 65% 30.16 in 10.0 mi East 13.8 mph 18.4 mph N/A   Overcast
3:15 AM 37.4 °F 29.8 °F 26.6 °F 65% 30.15 in 10.0 mi ENE 11.5 mph 18.4 mph N/A   Overcast
3:35 AM 37.4 °F 29.8 °F 26.6 °F 65% 30.15 in 10.0 mi ENE 11.5 mph 19.6 mph N/A   Overcast
3:55 AM 37.4 °F 30.8 °F 26.6 °F 65% 30.14 in 10.0 mi ENE 9.2 mph - N/A   Overcast
4:15 AM 37.4 °F 30.8 °F 26.6 °F 65% 30.15 in 10.0 mi ENE 9.2 mph - N/A   Overcast
4:35 AM 37.4 °F 30.3 °F 26.6 °F 65% 30.16 in 10.0 mi East 10.4 mph - N/A   Overcast
4:55 AM 37.4 °F 30.3 °F 26.6 °F 65% 30.16 in 10.0 mi East 10.4 mph 16.1 mph N/A   Overcast
5:15 AM 37.4 °F 30.3 °F 26.6 °F 65% 30.17 in 10.0 mi East 10.4 mph 17.3 mph N/A   Overcast
5:35 AM 37.4 °F 29.8 °F 26.6 °F 65% 30.18 in 10.0 mi East 11.5 mph 17.3 mph N/A   Overcast
5:55 AM 37.4 °F 29.8 °F 26.6 °F 65% 30.19 in 10.0 mi East 11.5 mph - N/A   Overcast
6:15 AM 37.4 °F 29.3 °F 26.6 °F 65% 30.19 in 10.0 mi East 12.7 mph 17.3 mph N/A   Overcast
6:35 AM 37.4 °F 30.3 °F 24.8 °F 60% 30.21 in 10.0 mi East 10.4 mph - N/A   Overcast
6:55 AM 37.4 °F 29.8 °F 24.8 °F 60% 30.20 in 10.0 mi East 11.5 mph - N/A   Overcast
7:15 AM 37.4 °F 30.3 °F 24.8 °F 60% 30.20 in 10.0 mi East 10.4 mph - N/A   Overcast
7:35 AM 37.4 °F 29.3 °F 24.8 °F 60% 30.19 in 10.0 mi East 12.7 mph 18.4 mph N/A   Overcast
7:55 AM 39.2 °F 32.0 °F 24.8 °F 56% 30.20 in 10.0 mi East 11.5 mph 17.3 mph N/A   Overcast
8:15 AM 39.2 °F 31.2 °F 23.0 °F 52% 30.22 in 10.0 mi East 13.8 mph 17.3 mph N/A   Overcast
8:35 AM 39.2 °F 31.6 °F 23.0 °F 52% 30.22 in 10.0 mi East 12.7 mph - N/A   Overcast
8:55 AM 39.2 °F 30.8 °F 21.2 °F 49% 30.22 in 10.0 mi East 15.0 mph 20.7 mph N/A   Overcast
9:15 AM 39.2 °F 30.8 °F 21.2 °F 49% 30.22 in 10.0 mi East 15.0 mph 20.7 mph N/A   Overcast
9:35 AM 41.0 °F 32.2 °F 21.2 °F 45% 30.23 in 10.0 mi East 18.4 mph 25.3 mph N/A   Overcast
9:55 AM 41.0 °F 34.3 °F 21.2 °F 45% 30.22 in 10.0 mi East 11.5 mph 19.6 mph N/A   Overcast
10:15 AM 41.0 °F 33.9 °F 21.2 °F 45% 30.22 in 10.0 mi East 12.7 mph 25.3 mph N/A   Overcast
10:35 AM 42.8 °F 35.1 °F 23.0 °F 46% 30.23 in 10.0 mi East 16.1 mph 26.5 mph N/A   Overcast
10:55 AM 42.8 °F 33.3 °F 21.2 °F 42% 30.22 in 10.0 mi East 24.2 mph 28.8 mph N/A   Overcast
11:15 AM 42.8 °F 33.8 °F 23.0 °F 46% 30.20 in 10.0 mi East 21.9 mph 29.9 mph N/A   Overcast
11:35 AM 44.6 °F 36.4 °F 21.2 °F 39% 30.21 in 10.0 mi East 20.7 mph 34.5 mph N/A   Mostly Cloudy
11:55 AM 44.6 °F 37.4 °F 21.2 °F 39% 30.22 in 10.0 mi East 16.1 mph 26.5 mph N/A   Mostly Cloudy
12:15 PM 44.6 °F 37.4 °F 23.0 °F 43% 30.22 in 10.0 mi East 16.1 mph 20.7 mph N/A   Overcast
12:35 PM 46.4 °F 41.1 °F 23.0 °F 40% 30.20 in 10.0 mi East 11.5 mph 21.9 mph N/A   Overcast
12:55 PM 48.2 °F - 24.8 °F 40% 30.20 in 10.0 mi East 12.7 mph 20.7 mph N/A   Overcast
1:15 PM 48.2 °F - 24.8 °F 40% 30.20 in 10.0 mi East 15.0 mph 18.4 mph N/A   Overcast
1:35 PM 48.2 °F - 23.0 °F 37% 30.20 in 10.0 mi East 11.5 mph - N/A   Overcast
1:55 PM 48.2 °F - 23.0 °F 37% 30.20 in 10.0 mi ESE 10.4 mph - N/A   Overcast
2:15 PM 48.2 °F - 21.2 °F 34% 30.18 in 10.0 mi East 10.4 mph - N/A   Overcast
2:35 PM 48.2 °F - 24.8 °F 40% 30.18 in 10.0 mi East 10.4 mph - N/A   Overcast
2:55 PM 48.2 °F - 24.8 °F 40% 30.17 in 10.0 mi East 11.5 mph 18.4 mph N/A   Overcast
3:15 PM 48.2 °F - 24.8 °F 40% 30.17 in 10.0 mi East 11.5 mph - N/A   Overcast
3:35 PM 48.2 °F - 24.8 °F 40% 30.17 in 10.0 mi East 10.4 mph - N/A   Overcast
3:55 PM 48.2 °F - 23.0 °F 37% 30.17 in 10.0 mi East 11.5 mph - N/A   Overcast
4:15 PM 48.2 °F - 24.8 °F 40% 30.16 in 10.0 mi East 11.5 mph - N/A   Overcast
4:35 PM 48.2 °F - 24.8 °F 40% 30.17 in 10.0 mi East 6.9 mph - N/A   Overcast
4:55 PM 48.2 °F - 24.8 °F 40% 30.16 in 10.0 mi East 8.1 mph - N/A   Overcast
5:15 PM 48.2 °F - 23.0 °F 37% 30.16 in 10.0 mi East 10.4 mph - N/A   Overcast
5:35 PM 50.0 °F - 24.8 °F 37% 30.16 in 10.0 mi East 11.5 mph 16.1 mph N/A   Scattered Clouds
5:55 PM 50.0 °F - 23.0 °F 35% 30.16 in 10.0 mi East 9.2 mph - N/A   Mostly Cloudy
6:15 PM 48.2 °F - 24.8 °F 40% 30.16 in 10.0 mi East 8.1 mph - N/A   Mostly Cloudy
6:35 PM 48.2 °F - 24.8 °F 40% 30.16 in 10.0 mi East 8.1 mph - N/A   Overcast
6:55 PM 48.2 °F - 23.0 °F 37% 30.16 in 10.0 mi East 8.1 mph - N/A   Overcast
7:15 PM 48.2 °F - 23.0 °F 37% 30.16 in 10.0 mi ENE 5.8 mph - N/A   Overcast
7:35 PM 48.2 °F - 24.8 °F 40% 30.16 in 10.0 mi NE 6.9 mph - N/A   Overcast
7:55 PM 48.2 °F - 24.8 °F 40% 30.15 in 10.0 mi NE 5.8 mph - N/A   Overcast
8:15 PM 48.2 °F - 24.8 °F 40% 30.16 in 10.0 mi NNE 4.6 mph - N/A   Overcast
8:35 PM 46.4 °F 43.5 °F 26.6 °F 46% 30.16 in 10.0 mi NNE 5.8 mph - N/A   Overcast
8:55 PM 48.2 °F - 24.8 °F 40% 30.16 in 10.0 mi NE 3.5 mph - N/A   Overcast
9:15 PM 48.2 °F - 24.8 °F 40% 30.16 in 10.0 mi ENE 4.6 mph - N/A   Overcast
9:35 PM 48.2 °F - 24.8 °F 40% 30.15 in 10.0 mi ENE 5.8 mph - N/A   Overcast
9:55 PM 48.2 °F - 24.8 °F 40% 30.15 in 10.0 mi East 3.5 mph - N/A   Overcast
10:15 PM 46.4 °F 43.5 °F 28.4 °F 50% 30.15 in 10.0 mi East 5.8 mph - N/A   Overcast
10:35 PM 44.6 °F - 30.2 °F 57% 30.15 in 10.0 mi Calm Calm - 0.03 in   Overcast
10:55 PM 42.8 °F - 35.6 °F 76% 30.15 in 10.0 mi Calm Calm - 0.07 in   Overcast
11:15 PM 42.8 °F - 35.6 °F 76% 30.15 in 10.0 mi Calm Calm - 0.01 in   Mostly Cloudy
11:35 PM 42.8 °F - 37.4 °F 81% 30.15 in 10.0 mi Calm Calm - 0.01 in   Partly Cloudy
11:55 PM 42.8 °F - 35.6 °F 76% 30.14 in 10.0 mi Calm Calm - 0.02 in   Mostly Cloudy